Probability
0 0 0 0 0 0 0 0 0 0 0 0 0 0 0 0 0 0 0 0 0 0 0 0 0 0 0 0 0 0 0 0 0 0 0 0 0 0 0 0 0 0 0 0
0 0 0 0 0 0 0 0 0 0 0 0 0 0 0 0 0 0 0 0 0 0 0 0 0 0 0 0 0 0 0 0 0 0 0 0 0 0 0 0 0 0 0 0
0 0 0 0 0 0 0 0 0 0 0 0 0 0 0 0 0 0 0 0 0 0 0 0 0 0 0 0 0 0 0 0 0 0 0 0 0 0 0 0 0 0 0 0
0 0 0 0 0 0 0 0 0 0 0 0 0 0 0 0 0 0 0 0 0 0 0 0 0 0 0 0 0 0 0 0 0 0 0 0 0 0 0 0 0 0 0 0
0 0 0 0 0 0 0 0 0 0 0 0 0 0 0 0 0 0 0 0 0 0 0 0 0 0 0 0 0 0 0 0 0 0 0 0 0 0 0 0 0 0 0 0
0 0 0 0 0 0 0 0 0 0 0 0 0 0 0 0 0 0 0 0 0 0 0 0 0 0 0 0 0 0 0 0 0 0 0 0 0 0 0 0 0 0 0 0
0 0 0 0 0 0 0 0 0 0 0 0 0 0 0 0 0 0 0 0 0 0 0 0 0 0 0 0 0 0 0 0 0 0 0 0 0 0 0 0 0 0 0 0
0 0 0 0 0 0 0 0 0 0 0 0 0 0 0 0 0 0 0 0 0 0 0 0 0 0 0 0 0 0 0 0 0 0 0 0 0 0 0 0 0 0 0 0
0 0 0 0 0 0 0 0 0 0 0 0 0 0 0 0 0 0 0 0 0 0 0 0 0 0 0 0 0 0 0 0 0 0 0 0 0 0 0 0 0 0 0 0
0 0 0 0 0 0 0 0 0 0 0 0 0 0 0 0 0 0 0 0 0 0 0 0 0 0 0 0 0 0 0 0 0 0 0 0 0 0 0 0 0 0 0 0
0 0 0 0 0 0 0 0 0 0 0 0 0 0 0 0 0 0 0 0 0 0 0 0 0 0 0 0 0 0 0 0 0 0 0 0 0 0 0 0 0 0 0 0
0 0 0 0 0 0 0 0 0 0 0 0 0 0 0 0 0 0 0 0 0 0 0 0 0 0 0 0 0 0 0 0 0 0 0 0 0 0 0 0 0 0 0 0
0 0 0 0 0 0 0 0 0 0 0 0 0 0 0 0 0 0 0 0 0 0 0 0 0 0 0 0 0 0 0 0 0 0 0 0 0 0 0 0 0 0 0 0
0 0 0 0 0 0 0 0 0 0 0 0 0 0 0 0 0 0 0 0 0 0 0 0 0 0 0 0 0 0 0 0 0 0 0 0 0 0 0 0 0 0 0 0
0 0 0 0 0 0 0 0 0 0 0 0 0 0 0 0 0 0 0 0 0 0 0 0 0 0 0 0 0 0 0 0 0 0 0 0 0 0 0 0 0 0 0 0
0 0 0 0 0 0 0 0 0 0 0 0 0 0 0 0 0 0 0 0 0 0 0 0 0 0 0 0 0 0 0 0 0 0 0 0 0 0 0 0 0 0 0 0
0 0 0 0 0 0 0 0 0 0 0 0 0 0 0 0 0 0 0 0 0 0 0 0 0 0 0 0 0 0 0 0 0 0 0 0 0 0 0 0 0 0 0 0
0 0 0 0 0 0 0 0 0 0 0 0 0 0 0 0 0 0 0 0 0 0 0 0 0 0 0 0 0 0 0 0 0 0 0 0 0 0 0 0 0 0 0 0
0 0 0 0 0 0 0 0 0 0 0 0 0 0 0 0 0 0 0 0 0 0 0 0 0 0 0 0 0 0 0 0 0 0 0 0 0 0 0 0 0 0 0 0
0 0 0 0 0 0 0 0 0 0 0 0 0 0 0 0 0 0 0 0 0 0 0 0 0 0 0 0 0 0 0 0 0 0 0 0 0 0 0 0 0 0 0 0
0 0 0 0 0 0 0 0 0 0 0 0 0 0 0 0 0 0 0 0 0 0 0 0 0 0 0 0 0 0 0 0 0 0 0 0 0 0 0 0 0 0 0 0
0 0 0 0 0 0 0 0 0 0 0 0 0 0 0 0 0 0 0 0 0 0 0 0 0 0 0 0 0 0 0 0 0 0 0 0 0 0 0 0 0 0 0 0
0 0 0 0 0 0 0 0 0 0 0 0 0 0 0 0 0 0 0 0 0 0 0 0 0 0 0 0 0 0 0 0 0 0 0 0 0 0 0 0 0 0 0 0
0 0 0 0 0 0 0 0 0 0 0 0 0 0 0 0 0 0 0 0 0 0 0 0 0 0 0 0 0 0 0 0 0 0 0 0 0 0 0 0 0 0 0 0
0 0 0 0 0 0 0 0 0 0 0 0 0 0 0 0 0 0 0 0 0 0 0 0 0 0 0 0 0 0 0 0 0 0 0 0 0 0 0 0 0 0 0 0
0 0 0 0 0 0 0 0 0 0 0 0 0 0 0 0 0 0 0 0 0 0 0 0 0 0 0 0 0 0 0 0 0 0 0 0 0 0 0 0 0 0 0 0
0 0 0 0 0 0 0 0 0 0 0 0 0 0 0 0 0 0 0 0 0 0 0 0 0 0 0 0 0 0 0 0 0 0 0 0 0 0 0 0 0 0 0 0
Height
5646 5648 5650 5652 5654 5656 5658 5660 5662 5665 5666 5667 5667 5669 5670 5672 5673 5675 5676 5677 5678 5680 5681 5682 5684 5685 5686 5687 5688 5689 5690 5691 5692 5693 5693 5694 5694 5695 5695 5695 5696 5696 5696 5696
5644 5645 5647 5649 5650 5652 5653 5655 5656 5658 5660 5660 5661 5662 5664 5665 5666 5667 5668 5669 5670 5671 5672 5673 5675 5676 5677 5677 5678 5679 5680 5681 5682 5682 5683 5683 5683 5684 5684 5684 5684 5684 5684 5684
5641 5642 5643 5645 5647 5647 5648 5649 5651 5652 5654 5654 5655 5656 5656 5657 5658 5659 5660 5661 5662 5662 5663 5664 5665 5666 5667 5668 5668 5669 5670 5671 5672 5672 5672 5673 5673 5673 5673 5672 5672 5672 5672 5672
5637 5638 5639 5643 5642 5642 5643 5643 5644 5645 5646 5646 5647 5648 5648 5649 5650 5650 5651 5652 5653 5653 5654 5655 5656 5657 5657 5658 5659 5659 5660 5661 5661 5661 5662 5662 5662 5662 5661 5661 5661 5661 5661 5660
5633 5633 5634 5636 5637 5636 5636 5637 5638 5638 5638 5639 5639 5639 5640 5641 5641 5641 5642 5642 5643 5644 5645 5645 5646 5647 5647 5648 5649 5649 5650 5650 5651 5651 5651 5651 5651 5651 5651 5650 5650 5650 5650 5649
5628 5628 5629 5631 5631 5630 5631 5630 5631 5631 5631 5631 5631 5632 5632 5632 5632 5632 5632 5633 5633 5634 5635 5636 5636 5637 5638 5638 5639 5639 5640 5640 5640 5641 5641 5641 5641 5640 5640 5640 5640 5640 5639 5639
5623 5623 5624 5625 5624 5624 5625 5625 5623 5623 5623 5623 5622 5623 5623 5623 5622 5622 5623 5623 5624 5624 5625 5626 5626 5627 5628 5629 5629 5629 5630 5630 5631 5631 5631 5631 5631 5631 5631 5630 5630 5630 5630 5630
5619 5618 5621 5618 5618 5618 5617 5616 5615 5615 5614 5614 5614 5614 5614 5614 5614 5613 5614 5614 5614 5615 5615 5616 5617 5617 5618 5619 5619 5620 5620 5621 5621 5621 5621 5621 5621 5621 5621 5621 5621 5621 5621 5621
5614 5615 5613 5611 5610 5610 5609 5608 5607 5607 5606 5606 5605 5605 5605 5605 5604 5604 5604 5604 5605 5605 5606 5606 5607 5608 5609 5609 5610 5610 5611 5611 5612 5612 5613 5613 5613 5613 5613 5613 5613 5613 5613 5613
5608 5607 5606 5604 5603 5602 5601 5600 5599 5598 5598 5597 5596 5596 5596 5595 5595 5595 5595 5595 5595 5596 5596 5597 5597 5598 5599 5600 5600 5601 5602 5602 5603 5604 5604 5604 5604 5605 5605 5605 5605 5605 5605 5605
5602 5601 5599 5597 5595 5594 5593 5591 5590 5589 5588 5587 5587 5586 5586 5585 5585 5585 5585 5585 5585 5586 5587 5587 5588 5589 5589 5590 5591 5592 5593 5593 5594 5595 5595 5596 5596 5597 5597 5597 5598 5598 5598 5598
5598 5595 5593 5590 5587 5585 5584 5583 5581 5580 5579 5577 5576 5575 5575 5574 5574 5574 5574 5574 5575 5576 5577 5578 5579 5579 5580 5581 5582 5583 5584 5585 5585 5586 5587 5588 5588 5589 5589 5590 5590 5590 5590 5591
5592 5589 5586 5583 5580 5577 5576 5574 5572 5570 5568 5566 5564 5562 5562 5563 5563 5563 5563 5563 5564 5565 5567 5567 5568 5569 5570 5571 5573 5574 5575 5576 5577 5577 5578 5579 5580 5580 5581 5582 5582 5582 5583 5583
5586 5583 5580 5577 5574 5571 5568 5565 5562 5559 5557 5554 5552 5551 5550 5551 5551 5552 5552 5552 5553 5554 5555 5557 5558 5559 5560 5562 5563 5564 5565 5567 5568 5568 5569 5570 5571 5572 5573 5574 5574 5574 5575 5575
5581 5577 5574 5570 5566 5563 5559 5556 5553 5549 5545 5542 5539 5538 5538 5539 5539 5539 5540 5540 5542 5543 5544 5545 5547 5548 5549 5551 5553 5554 5556 5557 5558 5559 5560 5561 5562 5563 5564 5565 5566 5566 5566 5566
5574 5570 5567 5562 5558 5554 5550 5547 5543 5539 5535 5531 5528 5527 5526 5526 5526 5526 5526 5527 5528 5530 5531 5533 5534 5536 5538 5540 5542 5544 5545 5547 5548 5550 5551 5552 5553 5554 5555 5556 5556 5557 5557 5557
5567 5563 5558 5554 5549 5545 5540 5536 5532 5528 5524 5520 5517 5515 5514 5513 5513 5512 5512 5513 5515 5516 5518 5519 5521 5523 5525 5528 5530 5533 5535 5536 5538 5539 5541 5542 5543 5544 5545 5546 5547 5547 5547 5547
5558 5553 5548 5543 5538 5533 5529 5524 5519 5515 5511 5507 5505 5502 5501 5500 5499 5499 5499 5500 5502 5503 5504 5505 5506 5509 5512 5515 5518 5520 5523 5525 5527 5529 5530 5531 5532 5534 5535 5536 5536 5537 5537 5537
5547 5542 5536 5531 5525 5520 5515 5510 5506 5501 5497 5494 5491 5489 5487 5486 5485 5486 5486 5488 5489 5490 5491 5492 5493 5495 5498 5501 5504 5508 5510 5513 5515 5517 5519 5520 5522 5523 5524 5524 5525 5525 5526 5526
5536 5530 5524 5518 5512 5507 5501 5496 5491 5487 5482 5479 5476 5474 5472 5471 5470 5471 5473 5474 5475 5477 5478 5479 5481 5483 5486 5489 5492 5495 5498 5501 5503 5506 5507 5509 5510 5511 5512 5513 5514 5514 5515 5515
5525 5518 5511 5505 5499 5493 5487 5482 5476 5472 5467 5463 5460 5458 5456 5455 5455 5456 5457 5460 5461 5463 5465 5467 5469 5471 5474 5476 5480 5483 5486 5489 5491 5494 5496 5498 5499 5500 5501 5502 5503 5503 5504 5504
5512 5506 5499 5492 5486 5480 5473 5467 5462 5457 5452 5448 5445 5442 5440 5440 5440 5440 5442 5444 5447 5449 5451 5454 5456 5459 5461 5464 5467 5470 5473 5476 5479 5481 5484 5486 5488 5489 5490 5491 5492 5492 5493 5494
5500 5492 5485 5478 5472 5466 5459 5453 5447 5442 5437 5433 5430 5427 5425 5424 5424 5425 5427 5429 5431 5434 5437 5440 5443 5446 5449 5452 5455 5458 5461 5464 5467 5470 5472 5475 5477 5479 5480 5481 5482 5482 5483 5484
5487 5479 5471 5464 5457 5451 5445 5439 5433 5428 5423 5420 5416 5413 5411 5410 5410 5410 5411 5414 5417 5420 5423 5427 5430 5433 5437 5440 5443 5447 5449 5452 5455 5458 5461 5464 5466 5468 5470 5471 5472 5473 5473 5474
5473 5465 5457 5450 5443 5437 5431 5426 5420 5416 5411 5408 5404 5401 5399 5397 5397 5397 5398 5400 5403 5406 5409 5413 5417 5421 5424 5428 5432 5435 5438 5442 5445 5448 5450 5453 5455 5458 5460 5461 5462 5463 5464 5465
5459 5452 5444 5437 5430 5424 5419 5413 5409 5404 5400 5397 5395 5392 5389 5387 5386 5386 5387 5389 5391 5394 5397 5401 5405 5409 5412 5416 5421 5424 5428 5431 5435 5438 5440 5443 5446 5448 5450 5452 5453 5454 5455 5456
5446 5438 5431 5425 5418 5412 5407 5402 5397 5394 5390 5387 5385 5382 5380 5378 5377 5377 5378 5379 5381 5383 5386 5390 5393 5397 5401 5405 5409 5414 5418 5421 5425 5428 5431 5434 5436 5439 5441 5443 5444 5445 5446 5447
Wind_Speed
14 14 15 16 17 18 20 20 21 21 22 23 25 26 27 27 27 27 27 28 29 30 31 31 32 32 33 33 34 35 36 37 38 40 41 42 43 44 45 46 46 46 46 46
15 16 16 17 18 19 20 21 22 23 23 25 26 26 26 27 28 28 29 29 30 31 31 32 32 33 33 34 35 35 36 37 38 39 40 41 42 42 43 44 44 44 44 44
18 19 20 20 20 20 22 23 24 25 25 26 26 27 27 28 29 29 30 31 31 32 32 32 33 33 34 35 35 36 36 37 38 39 40 40 41 42 42 42 42 43 43 43
19 20 21 20 20 21 23 24 24 25 26 26 27 27 29 29 30 31 32 32 32 33 33 33 33 33 34 34 35 36 37 37 38 39 39 40 41 41 41 41 41 41 41 41
20 21 22 22 20 21 23 24 24 25 26 26 27 27 29 29 30 30 31 32 32 33 33 33 33 33 34 34 34 35 36 37 38 38 39 39 39 40 39 39 39 39 38 38
20 21 23 22 21 23 24 26 25 26 26 27 27 28 29 30 30 31 31 31 32 32 33 33 33 33 33 33 33 34 35 35 36 37 37 37 37 37 36 36 36 35 34 34
20 22 23 22 23 24 25 26 26 26 27 28 29 29 29 30 31 32 32 32 32 32 32 32 32 33 33 33 33 33 34 34 34 35 35 35 34 34 33 33 32 31 31 31
21 23 24 24 24 25 26 27 27 27 27 27 28 29 29 30 31 32 32 32 32 32 32 32 32 32 32 32 33 33 33 33 32 32 32 32 32 32 31 31 30 30 29 29
22 23 24 25 25 26 27 27 28 28 28 29 29 29 30 30 31 31 32 32 32 32 32 32 31 31 32 32 32 32 32 32 31 30 30 30 29 28 28 28 28 28 27 27
21 23 24 26 27 28 29 29 29 30 30 31 30 30 30 31 31 31 31 31 31 32 32 32 31 31 31 31 32 32 31 31 30 29 29 28 27 26 25 26 26 26 26 26
21 22 24 26 27 28 30 30 31 31 32 32 32 32 32 32 32 33 32 32 32 32 31 31 31 31 30 30 31 31 30 30 29 28 27 27 26 26 25 25 25 25 26 26
22 23 24 25 27 28 28 30 31 32 33 34 34 34 34 34 34 34 33 33 33 32 32 32 31 31 31 30 29 29 29 28 28 28 28 27 26 25 25 25 26 25 25 25
22 23 24 25 27 27 28 30 31 32 33 35 35 35 35 34 34 34 34 34 34 33 33 33 32 32 31 31 30 29 28 28 29 28 28 27 27 26 26 26 26 26 25 25
24 24 25 26 27 28 29 30 32 33 34 34 34 35 35 35 35 35 34 35 35 35 35 34 34 33 33 32 32 31 30 29 28 27 27 27 27 27 26 26 26 26 27 27
26 27 28 29 30 30 30 31 31 32 33 33 34 34 35 35 36 36 36 37 37 37 36 36 36 35 35 34 33 33 32 31 30 29 28 28 28 28 27 28 28 28 28 29
29 30 31 32 32 32 32 33 33 34 35 35 35 35 35 36 36 37 37 37 38 38 38 38 38 38 37 36 35 34 33 33 32 31 31 30 30 29 29 30 29 30 30 30
33 34 35 36 36 36 36 37 37 37 37 37 37 36 36 36 36 37 37 37 37 37 39 39 40 40 39 39 37 36 35 35 34 33 33 32 32 32 32 32 32 31 31 32
37 38 39 40 40 40 41 41 42 41 40 39 38 38 38 38 37 36 36 36 36 37 37 38 40 41 41 41 40 38 37 36 36 35 34 33 33 33 33 33 33 33 33 33
41 42 43 43 43 44 44 45 44 44 43 42 41 40 40 40 40 38 37 37 37 37 37 36 37 39 40 40 40 39 38 38 37 35 35 34 34 34 34 34 34 34 34 34
44 44 45 45 45 46 46 46 45 45 44 44 44 43 42 42 42 41 40 39 38 37 36 35 35 36 38 39 39 38 38 38 37 36 35 34 33 33 34 34 34 34 33 33
46 47 47 47 47 47 47 47 46 45 44 44 44 44 43 42 41 41 40 40 39 38 37 36 35 35 36 37 38 38 39 38 38 37 35 34 33 33 33 33 33 33 32 31
48 49 50 50 49 48 48 48 47 46 45 44 43 43 41 41 41 40 40 40 39 38 37 36 36 35 35 36 36 37 38 37 37 36 35 34 33 33 33 32 32 31 30 30
51 52 52 51 50 49 49 48 47 46 44 43 42 41 39 38 38 39 39 38 38 38 38 37 36 36 35 35 34 34 35 35 35 35 35 34 34 33 32 31 30 30 30 29
54 54 53 53 51 49 47 46 44 43 41 39 38 38 36 35 34 35 35 36 37 37 38 37 36 36 35 34 34 33 33 33 33 33 33 34 33 31 30 29 29 29 29 28
56 55 54 52 49 47 45 43 41 39 37 35 34 33 32 31 31 31 31 32 33 34 35 35 35 35 34 34 33 32 32 32 31 31 31 31 31 30 30 29 28 27 26 26
56 54 52 50 48 46 44 41 38 36 34 32 30 30 29 28 28 28 28 28 29 30 32 33 33 33 33 33 33 33 32 31 31 30 29 29 29 30 29 28 27 26 25 25
56 53 51 48 46 44 41 38 36 34 32 31 30 29 28 26 25 25 25 24 26 27 29 30 31 31 32 32 32 32 31 30 30 29 28 28 28 27 27 26 25 25 24 25
Wind_Direction
232 234 236 239 243 245 245 247 249 248 249 252 254 257 259 260 260 260 260 260 260 260 260 260 260 260 260 260 261 262 264 265 266 266 267 267 268 269 270 270 271 271 272 273
242 244 248 249 251 252 253 253 254 253 252 254 257 259 260 261 261 260 260 261 262 262 261 260 260 260 260 261 261 262 264 265 266 267 268 269 269 270 271 272 271 272 272 272
252 252 254 256 258 260 259 258 258 258 258 259 261 262 262 261 261 260 261 261 262 262 262 262 261 261 261 261 261 262 263 264 266 267 268 269 270 271 272 273 274 274 273 273
257 256 256 259 259 260 260 260 261 262 263 263 263 262 262 262 262 262 262 261 261 261 261 262 262 263 262 262 262 262 263 264 266 267 269 270 271 272 273 274 274 273 273 273
258 259 260 261 263 263 263 263 263 264 265 264 264 263 263 263 263 262 262 261 261 261 262 262 262 262 262 262 263 263 264 265 266 268 269 270 272 273 274 274 273 273 273 272
263 264 265 267 266 265 266 266 266 266 266 265 264 264 264 264 263 263 262 262 261 261 262 262 262 261 262 263 263 264 265 267 268 268 269 271 272 273 273 273 273 273 272 272
269 269 271 271 270 269 270 272 270 269 267 265 264 264 264 263 263 263 263 263 262 261 261 261 261 261 261 262 263 264 265 267 268 269 270 271 272 273 273 273 273 273 272 271
275 275 276 275 274 273 273 273 272 271 270 268 266 266 265 264 264 263 264 264 263 261 260 260 261 261 261 261 262 264 265 266 267 269 270 271 272 272 272 273 273 273 271 269
278 278 278 277 276 275 275 275 274 273 271 270 269 269 268 267 266 265 264 264 263 262 261 260 260 261 261 261 262 263 263 264 265 267 270 270 271 273 272 272 272 272 271 270
286 284 283 281 279 278 277 276 275 274 272 271 270 269 269 269 268 267 265 264 263 262 261 260 260 260 261 260 261 262 262 263 263 266 267 267 269 270 272 274 273 272 272 271
293 291 287 285 282 280 278 277 276 275 274 273 271 270 270 269 269 268 266 264 263 263 261 260 260 260 261 260 260 261 261 262 263 263 264 265 266 269 271 272 273 273 273 272
301 298 295 292 288 285 282 280 279 277 275 275 274 272 270 269 268 267 265 263 261 261 261 260 259 259 259 259 259 260 259 259 260 262 263 264 265 266 268 271 272 273 273 273
308 305 303 299 296 293 289 285 284 281 279 277 276 273 270 269 268 266 264 262 260 259 259 259 258 258 258 257 257 258 258 259 261 262 262 262 263 265 266 268 270 271 272 272
313 310 307 306 303 300 296 292 288 286 283 280 277 274 271 269 268 267 265 262 260 259 258 258 257 256 256 256 256 256 257 258 260 261 261 260 262 263 265 267 269 271 271 272
315 312 310 308 305 303 300 298 295 292 290 286 281 277 274 271 269 268 266 263 260 259 259 258 257 256 255 254 254 255 256 257 258 259 259 260 261 263 265 267 269 269 271 272
314 312 311 310 307 304 302 299 297 295 292 290 285 281 277 274 272 269 267 265 262 260 259 258 257 255 254 253 253 254 254 256 258 258 259 260 261 262 264 266 268 269 270 272
311 309 308 307 306 304 301 299 298 297 294 291 287 283 279 277 275 272 268 266 264 262 260 258 256 253 252 251 252 252 253 255 256 259 259 260 261 262 264 265 267 269 270 271
308 307 306 305 304 302 300 298 297 295 294 293 290 285 281 277 275 272 268 266 265 265 264 261 256 253 251 249 249 250 252 253 255 257 258 259 261 262 263 264 266 268 270 272
308 308 306 304 303 301 300 299 297 295 292 290 289 287 283 279 276 272 269 267 266 265 265 262 257 252 249 248 248 249 251 252 254 255 257 259 261 263 264 265 266 267 269 271
310 309 307 305 303 302 301 299 298 295 292 289 287 286 283 279 275 272 270 268 267 265 264 261 257 253 250 248 247 248 249 251 252 254 256 258 260 262 264 266 267 268 269 271
311 310 309 307 305 304 302 301 299 297 294 291 289 287 283 278 274 271 269 267 266 264 261 259 257 253 250 248 248 248 249 250 251 253 254 257 260 262 264 266 267 268 268 269
312 310 309 308 306 305 303 301 300 298 295 292 291 288 285 279 274 271 268 266 264 262 259 258 256 252 249 249 249 249 250 250 250 250 252 255 258 261 263 265 266 266 266 268
313 312 311 309 308 306 305 303 301 299 296 293 291 289 286 282 276 271 266 263 261 259 257 256 254 250 248 247 248 249 248 248 248 249 250 253 256 259 261 263 263 263 264 266
315 314 312 311 310 308 306 304 302 300 297 295 293 291 287 283 278 273 267 262 259 256 254 253 252 248 246 246 246 247 247 247 247 248 250 251 253 255 257 260 262 263 264 266
316 315 313 313 311 309 308 306 304 301 298 296 296 294 290 284 279 272 267 262 258 255 252 249 248 247 245 244 243 244 245 245 245 246 249 250 250 252 255 258 260 262 264 266
316 316 315 314 312 311 310 308 306 302 299 295 295 294 291 286 280 273 266 261 257 254 250 248 245 244 243 242 241 242 243 243 244 246 247 249 250 252 254 256 258 261 264 266
317 316 316 314 313 312 311 309 306 303 299 296 294 292 290 286 280 274 267 261 257 253 249 245 242 240 239 238 238 239 240 241 242 243 245 247 249 251 252 254 257 260 263 266